Location: Cedar Brake
(32.2526°N, 97.8459°W)
Time: 17:24:30
(UTC+00:00)

Cosmos 2366 rocket - Pass Details

Date: 22 April 2026
Orbit: 954 x 996 km, 82.9° (Epoch: 9 May)

Event Time Altitude Azimuth Distance (km) Brightness Sun altitude
Rises 01:27:52 0° 169° (S) 3,634 6.7 -5.4°
Reaches altitude 10° 01:30:26 10° 164° (SSE) 2,686 6.0 -5.9°
Maximum altitude 01:36:19 50° 91° (E) 1,206 4.2 -7.1°
Drops below altitude 10° 01:42:11 10° 18° (NNE) 2,685 6.4 -8.3°
Sets 01:44:45 0° 13° (NNE) 3,634 7.1 -8.8°
